Flag for United Kingdom Weather past 2 weeks in St. Peter Port, Guernsey, United Kingdom

Now
41 °F

Passing clouds.


Feels Like: 32 °F
Forecast: 43 / 46 °F
Wind: 17 mph from Northwest

Location: Guernsey Airport

Current Time: Jan 31, 2015 at 7:42:42 AM

Latest Report: Jan 31, 2015 at 7:20 AM


Visibility: N/A

Pressure: 29.12 "Hg

Humidity: 76%

Dew point: 34 °F

Location of St. Peter PortLocation

Historic Weather in St. Peter Port — Graph

°F

St. Peter Port temperature yesterday

Maximum temperature yesterday: 46 °F (at 11:20 AM)
Minimum temperature yesterday: 43 °F (at 5:20 AM)
Average temperature yesterday: 44 °F

Past Weeks' High & Low Weather Summary

 TemperatureHumidityPressure
High52 °F (Jan 26, 10:20 AM)100% (Jan 16, 9:20 AM)30.54 "Hg (Jan 16, 9:20 AM)
Low36 °F (Jan 19, 5:20 PM)61% (Jan 28, 6:20 PM)28.97 "Hg (Jan 30, 5:20 AM)
Average43 °F83%29.93 "Hg
* Reported Jan 16 6:20 AM — Jan 31 6:50 AM, St. Peter Port, Weather by CustomWeather, © 2014

Note: Actual official high and low records may vary slightly from our data, if they occured in-between our weather recording intervals... More about our weather records

Advertising

St. Peter Port weather history for previous 24 hours

 ConditionsComfort  
Time TempWeatherWind HumidityBarometerVisibility
6:50 AM
Jan 31
41 °FPassing clouds.16 mph70%29.09 "HgN/A
6:20 AM41 °FPassing clouds.17 mph76%29.09 "HgN/A
5:50 AM41 °FScattered showers. Passing clouds.18 mph76%29.09 "HgN/A
5:20 AM41 °FScattered showers. Passing clouds.21 mph76%29.09 "HgN/A
4:50 AM41 °FScattered showers. Passing clouds.16 mph76%29.09 "HgN/A
4:20 AM41 °FScattered showers. Passing clouds.16 mph76%29.09 "HgN/A
3:50 AM41 °FScattered showers. Passing clouds.16 mph76%29.09 "HgN/A
8:50 PM
Jan 30
43 °FScattered showers. Passing clouds.14 mph76%29.06 "HgN/A
8:20 PM43 °FScattered showers. Passing clouds.10 mph81%29.06 "HgN/A
7:50 PM43 °FScattered showers. Passing clouds.13 mph81%29.06 "HgN/A
7:20 PM43 °FSprinkles. Partly cloudy.14 mph81%29.06 "HgN/A
6:50 PM45 °FScattered showers. Passing clouds.14 mph76%29.06 "HgN/A
6:20 PM43 °FScattered showers. Passing clouds.15 mph87%29.06 "HgN/A
5:50 PM43 °FScattered showers. Passing clouds.14 mph87%29.03 "HgN/A
5:20 PM43 °FSprinkles. Partly cloudy.10 mph87%29.03 "HgN/A
4:50 PM43 °FSprinkles. Broken clouds.21 mph81%29.06 "HgN/A
4:20 PM43 °FScattered showers. Scattered clouds.17 mph81%29.06 "HgN/A
3:50 PM45 °FSprinkles. Partly sunny.15 mph87%29.06 "HgN/A
3:20 PM45 °FScattered showers. Scattered clouds.17 mph81%29.06 "HgN/A
2:50 PM45 °FScattered showers. Scattered clouds.18 mph81%29.06 "HgN/A
2:20 PM45 °FScattered showers. Scattered clouds.16 mph81%29.06 "HgN/A
1:50 PM45 °FSprinkles. Broken clouds.14 mph81%29.06 "HgN/A
1:20 PM46 °FScattered showers. Broken clouds.16 mph76%29.06 "HgN/A
12:50 PM45 °FBroken clouds.18 mph81%29.09 "HgN/A
12:20 PM46 °FScattered clouds.17 mph76%29.09 "HgN/A
11:50 AM45 °FScattered clouds.15 mph81%29.09 "HgN/A
11:20 AM46 °FPassing clouds.20 mph76%29.09 "HgN/A
10:50 AM45 °FPassing clouds.21 mph76%29.09 "HgN/A
10:20 AM45 °FPassing clouds.20 mph66%29.09 "HgN/A
9:50 AM45 °FPassing clouds.25 mph66%29.06 "HgN/A
9:20 AM45 °FPassing clouds.23 mph66%29.06 "HgN/A
8:50 AM43 °FPassing clouds.28 mph71%29.06 "HgN/A
8:20 AM43 °FScattered clouds.31 mph71%29.03 "HgN/A
7:50 AM45 °FPartly sunny.32 mph66%29.03 "HgN/A
7:20 AM45 °FPassing clouds.35 mph71%29.00 "HgN/A
Weather by CustomWeather, © 2014

See weather overviewHow to use our weather pages